Regional Weather Roundup
Issued by NWS

Home | Current Version | Previous Version | Text Only | Print | Product List | Glossary On
Versions: 1 2 3 4 5 6 7 8 9 10 11 12 13 14 15 16 17 18 19 20 21 22 23 24 25 26 27 28 29 30 31 32 33 34 35 36 37 38 39 40 41 42 43 44 45 46 47 48 49 50
000
ASUS43 KMPX 301001
RWRMN
WEATHER ROUNDUP FOR MINNESOTA
NATIONAL WEATHER SERVICE TWIN CITIES/CHANHASSEN MN
500 AM CDT THU MAR 30 2017


NOTE: "FAIR" INDICATES FEW OR NO CLOUDS BELOW 12,000 FEET WITH NO
SIGNIFICANT WEATHER AND/OR OBSTRUCTIONS TO VISIBILITY. N/A MEANS
CURRENT SKY AND/OR WEATHER CONDITIONS ARE NOT AVAILABLE.

MNZ060>063-068>070-301100-
   Twin Cities Metro

CITY           SKY/WX    TMP DP  RH WIND       PRES   REMARKS
TWIN CITIES    LGT RAIN  39  36  89 E10       29.97F FOG
ST PAUL        CLOUDY    39  37  92 E9        29.99F
CRYSTAL        CLOUDY    39  35  86 NE8       29.98F
BLAINE         CLOUDY    41  37  87 E8        29.99F
LAKEVILLE      CLOUDY    37  37 100 NE10      29.95F
EDEN PRAIRIE   LGT RAIN  40  37  89 NE8       29.95F FOG
SOUTH ST PAUL  CLOUDY    39  37  93 NE6       29.97F
LAKE ELMO      CLOUDY    37  36  93 NE8       29.99F
$$
MNZ001>005-007-008-013>017-022>024-027-028-301100-
   Northwest Minnesota

CITY           SKY/WX    TMP DP  RH WIND       PRES   REMARKS
BEMIDJI        PTCLDY    29  28  97 SE5       30.01S WCI  24
HALLOCK        MOCLDY    39  37  93 S12       29.95F
ROSEAU         CLOUDY    37  34  87 S5        29.98F
WARROAD        MOCLDY    36  32  87 CALM      29.99F
THIEF RVR FALL CLEAR     36  34  92 S8        29.98F
CROOKSTON      CLEAR     36  36 100 S8        29.98F
FOSSTON        CLEAR     34  32  93 S8        29.99F WCI  27
DETROIT LAKES  CLOUDY    36  34  93 SE3       30.00F
MOORHEAD       CLEAR     32  30  93 S6        30.00F FOG     WCI  26
PARK RAPIDS    PTCLDY    31  27  85 SE5       30.00F WCI  26
MAHNOMEN       FAIR      33  32  97 SE7       29.99F WCI  27
$$
MNZ006-009>011-018-025>026-301100-
   North Central Minnesota

CITY           SKY/WX    TMP DP  RH WIND       PRES   REMARKS
BAUDETTE       CLEAR     33  29  85 SE5       30.00F WCI  29
FLAG ISLAND    CLEAR     34  30  86 S8        29.99S WCI  27
INTL FALLS     CLEAR     28  24  85 CALM      30.03F
WASKISH        CLEAR     30  28  93 SE3       30.02S
BIG FORK       CLEAR     28  27  93 CALM      30.03S
LONGVILLE      CLEAR     27  25  93 CALM      30.04S
GRAND RAPIDS   CLOUDY    27  26  96 SE5       30.05F WCI  22
CRANE LAKE     CLEAR     23  21  93 CALM      30.07F
ORR            CLEAR     27  21  80 CALM      30.02F
COOK           CLEAR     25  23  93 CALM      30.05F
WALKER         FAIR      29  28  95 E3        30.02F
$$
MNZ012-019>021-037-301100-
   Northeast Minnesota

CITY           SKY/WX    TMP DP  RH WIND       PRES   REMARKS
DULUTH         CLOUDY    31  29  92 E10       30.06S WCI  22
ELY            CLEAR     25  21  86 CALM      30.06F
HIBBING        CLEAR     22  22 100 CALM      30.05F FOG
EVELETH        CLOUDY    25  23  93 CALM      30.06F
DULUTH HARBOR  CLOUDY    36  34  93 NE14      30.10F
TWO HARBORS    CLOUDY    34  28  80 NE7       30.06F WCI  28
GRAND MARAIS     N/A     34  27  75 NE10      30.12F WCI  26
G MARAIS ARPRT CLOUDY    27  21  80 NE7       30.08S WCI  19
$$
MNZ029>031-032-039>041-046>048-054>057-064-301100-
   West Central Minnesota

CITY           SKY/WX    TMP DP  RH WIND       PRES   REMARKS
FERGUS FALLS   CLOUDY    36  36 100 E5        30.03F
WHEATON        CLOUDY    36  34  93 CALM      30.01F
MORRIS         DRIZZLE   39  37  93 E6        29.98S
ALEXANDRIA     CLOUDY    38  37  97 E9        30.00F
ELBOW LAKE     CLOUDY    37  37  97 NE5       30.00S
WADENA         CLOUDY    32  30  93 CALM      30.01S
GLENWOOD       DRIZZLE   37  37 100 NE8       29.99S
APPLETON       DRIZZLE   39  37  93 CALM      29.98S
BENSON         DRIZZLE   43  36  75 E6        30.00F
ORTONVILLE     CLOUDY    39  37  93 E7        29.98S
MADISON        DRIZZLE   43  43 100 E6        29.97F
WILLMAR        DRIZZLE   41  37  87 E9        29.98F
$$
MNZ033>034-036-042>043-049>051-058-059-301100-
   Central Minnesota

CITY           SKY/WX    TMP DP  RH WIND       PRES   REMARKS
ST CLOUD       CLOUDY    36  32  85 NE6       30.00F
SAUK CENTRE    CLOUDY    37  35  90 E7        29.99F
PAYNESVILLE    CLOUDY    38  38 100 NE8       29.99F
AITKIN         CLOUDY    30  27  86 E5        30.03S WCI  25
PINE RIVER     CLEAR     27  27 100 CALM      30.06F
BRAINERD       CLOUDY    30  29  96 CALM      30.03F
STAPLES        PTCLDY    28  28 100 CALM      30.02S
LONG PRAIRIE   CLOUDY    34  32  93 N3        30.00F
LITTLE FALLS   CLOUDY    34  30  86 E3        30.02F
LITCHFIELD     CLOUDY    39  37  93 E9        29.97F
BUFFALO        CLOUDY    39  36  87 NE7       29.99F
MAPLE LAKE     CLOUDY    40  37  90 NE9       30.00S
HUTCHINSON     CLOUDY    39  38  97 NE8       29.97F
$$
MNZ037-044-045-052-053-301100-
   East Central Minnesota

CITY           SKY/WX    TMP DP  RH WIND       PRES   REMARKS
PRINCETON      CLOUDY    36  30  80 N9        30.01F
MORA           CLOUDY    32  28  86 NE5       30.05F WCI  27
CAMBRIDGE      CLOUDY    37  28  70 N5        29.99F
RUSH CITY      CLOUDY    33  30  87 NE6       30.03F WCI  28
MOOSE LAKE     CLOUDY    32  30  93 E3        30.05S
CLOQUET        CLOUDY    30  30 100 E6        30.06S WCI  24
MCGREGOR       CLOUDY    32  30  93 E6        30.05F WCI  26
$$
MNZ071>073-080-081-089-090-097-098-301100-
   Southwest Minnesota

CITY           SKY/WX    TMP DP  RH WIND       PRES   REMARKS
MONTEVIDEO     DRIZZLE   39  37  93 E6        29.97F
GRANITE FALLS  CLOUDY    41  38  90 NE12      29.97F
CANBY          CLOUDY    40  38  95 CALM      29.97F
MARSHALL       LGT RAIN  38  37  97 NE13      29.94F FOG
REDWOOD FALLS  CLOUDY    39  36  89 NE8       29.94F FOG
OLIVIA         CLOUDY    39  36  87 NE9       29.95F
PIPESTONE      CLOUDY    37  34  87 E8        29.87F FOG
WINDOM         DRIZZLE   37  37 100 NE13G18   29.89F
WORTHINGTON    CLOUDY    36  35  96 NE18      29.87F
JACKSON        LGT SNOW  36  36 100 NE14      29.87F
TRACY          LGT RAIN  38  38  99 NE12      29.92F
SLAYTON        CLOUDY    36  36  99 NE10      29.91F FOG
$$
MNZ065>067-074>077-082>085-091>093-301100-
   South Central Minnesota

CITY           SKY/WX    TMP DP  RH WIND       PRES   REMARKS
MANKATO        LGT RAIN  38  35  89 NE15      29.92F
NEW ULM        CLOUDY    37  36  93 NE13      29.92F
ST JAMES       LGT RAIN  37  37 100 NE6       29.92F
FAIRMONT       CLOUDY    37  35  92 NE13      29.88F
GLENCOE        DRIZZLE   39  39 100 NE5       29.95F
FARIBAULT      LGT RAIN  37  36  93 NE12      29.93F
OWATONNA       LGT RAIN  36  34  93 NE14      29.90F
WASECA         RAIN      36  34  93 NE17G25   29.90F
ALBERT LEA     DRIZZLE   36  36 100 NE15      29.86F
$$
MNZ078>079-086>088-094>096-301100-
   Southeast Minnesota

CITY           SKY/WX    TMP DP  RH WIND       PRES   REMARKS
ROCHESTER      CLOUDY    36  35  96 NE16G23   29.88F
RED WING       RAIN      39  36  87 E8        29.96F
STANTON        LGT RAIN  39  36  88 NE9       29.93F
DODGE CENTER   CLOUDY    36  34  93 NE20      29.87F FOG
WINONA         CLOUDY    37  36  93 E9        29.93F
AUSTIN         RAIN      36  34  93 E12G18    29.86F
PRESTON        CLOUDY    35  33  91 NE10G22   29.87F WCI  28
$$
ABBREVIATIONS USED IN REMARKS
   TC - TEMPERATURES IN CELSIUS
  WCI - WIND CHILL INDEX
   HX - HEAT INDEX
  VSB - VISIBILITY
$$



USA.gov is the U.S. government's official web portal to all federal, state and local government web resources and services.